Volver al catálogo

STARLINK-30973

ActivoComunicacionesVLEO
NORAD 58713·PAYLOAD·🇺🇸 United States

Lanzado Jan 3, 2024 desde Vandenberg Space Force Base

Loading…

Próximos Pases (próximas 24 horas)

TLE

ActualizadoSource: CelesTrak SupGP

Época: Sep 15, 2026, 02:13 UTC

1 58713C 24002J   26258.09284722 -.00025947  00000+0 -76671-3 0  2585
2 58713  53.1585  68.8779 0001094  87.0461 220.9705 15.34399395    15

Sigue STARLINK-30973 en tiempo real con AllMySat

Download on the App Store